Satellite: HORYU-2 Catalog number: 38340 Epoch time: 14113.86108609 Element set: 832 Inclination: 098.2570 deg RA of node: 070.1636 deg Eccentricity: 0.0012482 Arg of perigee: 353.9548 deg Mean anomaly: 006.1474 deg Mean motion: 14.72356925 rev/day Decay rate: 4.371e-05 rev/day^2 Epoch rev: 10380 Checksum: 291
Satellite: RS-40 Catalog number: 38735 Epoch time: 14114.65983343 Element set: 550 Inclination: 082.4758 deg RA of node: 320.9265 deg Eccentricity: 0.0017349 Arg of perigee: 014.1339 deg Mean anomaly: 346.0225 deg Mean motion: 12.42558744 rev/day Decay rate: 2.4e-07 rev/day^2 Epoch rev: 7893 Checksum: 306
Satellite: PROITERES Catalog number: 38756 Epoch time: 14114.80090386 Element set: 769 Inclination: 098.2285 deg RA of node: 202.2234 deg Eccentricity: 0.0012738 Arg of perigee: 188.2477 deg Mean anomaly: 171.8524 deg Mean motion: 14.74882843 rev/day Decay rate: 1.183e-05 rev/day^2 Epoch rev: 8731 Checksum: 320
Satellite: BEESAT-3 Catalog number: 39134 Epoch time: 14114.62671463 Element set: 566 Inclination: 064.8767 deg RA of node: 307.9958 deg Eccentricity: 0.0023571 Arg of perigee: 317.2888 deg Mean anomaly: 042.6907 deg Mean motion: 15.04687925 rev/day Decay rate: 5.370e-05 rev/day^2 Epoch rev: 5560 Checksum: 335
Satellite: BEESAT-2 Catalog number: 39136 Epoch time: 14114.80308264 Element set: 552 Inclination: 064.8729 deg RA of node: 307.7678 deg Eccentricity: 0.0022466 Arg of perigee: 315.7962 deg Mean anomaly: 044.1361 deg Mean motion: 15.04161780 rev/day Decay rate: 9.936e-05 rev/day^2 Epoch rev: 5562 Checksum: 311
Satellite: LO-75 Catalog number: 39382 Epoch time: 14114.23778049 Element set: 202 Inclination: 040.4986 deg RA of node: 058.4548 deg Eccentricity: 0.0017438 Arg of perigee: 215.3677 deg Mean anomaly: 144.5952 deg Mean motion: 15.38029572 rev/day Decay rate: 1.03551e-03 rev/day^2 Epoch rev: 2373 Checksum: 320
Satellite: ZACUBE-1 Catalog number: 39417 Epoch time: 14113.74178784 Element set: 278 Inclination: 097.7797 deg RA of node: 186.2295 deg Eccentricity: 0.0063633 Arg of perigee: 060.6917 deg Mean anomaly: 300.0629 deg Mean motion: 14.77945437 rev/day Decay rate: 3.951e-05 rev/day^2 Epoch rev: 2265 Checksum: 340
Satellite: TRITON-1 Catalog number: 39427 Epoch time: 14114.24218903 Element set: 132 Inclination: 097.7656 deg RA of node: 183.6230 deg Eccentricity: 0.0119908 Arg of perigee: 062.6376 deg Mean anomaly: 298.6982 deg Mean motion: 14.65268156 rev/day Decay rate: 3.368e-05 rev/day^2 Epoch rev: 2249 Checksum: 327
Satellite: DELFIN3XT Catalog number: 39428 Epoch time: 14113.81332964 Element set: 135 Inclination: 097.7649 deg RA of node: 182.6389 deg Eccentricity: 0.0130587 Arg of perigee: 065.2741 deg Mean anomaly: 296.2024 deg Mean motion: 14.63090689 rev/day Decay rate: 5.457e-05 rev/day^2 Epoch rev: 2238 Checksum: 327
Satellite: GOMX-1 Catalog number: 39430 Epoch time: 14114.73279261 Element set: 414 Inclination: 097.7611 deg RA of node: 182.0381 deg Eccentricity: 0.0157908 Arg of perigee: 065.8029 deg Mean anomaly: 295.9582 deg Mean motion: 14.56712483 rev/day Decay rate: 3.375e-05 rev/day^2 Epoch rev: 2243 Checksum: 310
Satellite: MO-76 Catalog number: 39436 Epoch time: 14114.42905150 Element set: 177 Inclination: 097.7795 deg RA of node: 188.9089 deg Eccentricity: 0.0028290 Arg of perigee: 070.3113 deg Mean anomaly: 290.1163 deg Mean motion: 14.88932009 rev/day Decay rate: 2.6854e-04 rev/day^2 Epoch rev: 2287 Checksum: 331
Satellite: LO-74 Catalog number: 39440 Epoch time: 14114.33129456 Element set: 130 Inclination: 097.7732 deg RA of node: 185.5718 deg Eccentricity: 0.0086078 Arg of perigee: 059.3618 deg Mean anomaly: 301.6051 deg Mean motion: 14.72910877 rev/day Decay rate: 3.714e-05 rev/day^2 Epoch rev: 2265 Checksum: 311
Satellite: PUCPSAT-1 Catalog number: 39442 Epoch time: 14114.70179992 Element set: 127 Inclination: 097.7838 deg RA of node: 189.0338 deg Eccentricity: 0.0036257 Arg of perigee: 062.5466 deg Mean anomaly: 297.9467 deg Mean motion: 14.85840532 rev/day Decay rate: 5.618e-05 rev/day^2 Epoch rev: 2168 Checksum: 344
Satellite: LITSAT-1 Catalog number: 39568 Epoch time: 14114.93207183 Element set: 125 Inclination: 051.6435 deg RA of node: 359.0690 deg Eccentricity: 0.0008816 Arg of perigee: 190.1139 deg Mean anomaly: 261.4032 deg Mean motion: 15.75511447 rev/day Decay rate: 3.80134e-03 rev/day^2 Epoch rev: 867 Checksum: 292
Satellite: LITUANSAT Catalog number: 39569 Epoch time: 14115.01484317 Element set: 173 Inclination: 051.6475 deg RA of node: 000.2932 deg Eccentricity: 0.0007095 Arg of perigee: 160.4412 deg Mean anomaly: 334.8010 deg Mean motion: 15.64801044 rev/day Decay rate: 1.54018e-03 rev/day^2 Epoch rev: 866 Checksum: 263
Satellite: SHINAISAT Catalog number: 39572 Epoch time: 14114.79573090 Element set: 83 Inclination: 065.0074 deg RA of node: 227.6903 deg Eccentricity: 0.0015382 Arg of perigee: 290.1398 deg Mean anomaly: 069.8091 deg Mean motion: 15.64847853 rev/day Decay rate: 6.5186e-04 rev/day^2 Epoch rev: 874 Checksum: 326
Satellite: OPUSAT Catalog number: 39575 Epoch time: 14114.68913675 Element set: 98 Inclination: 065.0109 deg RA of node: 226.6699 deg Eccentricity: 0.0011597 Arg of perigee: 308.6787 deg Mean anomaly: 051.3233 deg Mean motion: 15.73478890 rev/day Decay rate: 1.66728e-03 rev/day^2 Epoch rev: 875 Checksum: 350
Satellite: TEIKYOSAT Catalog number: 39576 Epoch time: 14114.86432140 Element set: 83 Inclination: 065.0122 deg RA of node: 227.0087 deg Eccentricity: 0.0012028 Arg of perigee: 306.2400 deg Mean anomaly: 053.7331 deg Mean motion: 15.67177682 rev/day Decay rate: 8.2706e-04 rev/day^2 Epoch rev: 876 Checksum: 273
Satellite: IFT-1 Catalog number: 39577 Epoch time: 14114.73197042 Element set: 89 Inclination: 065.0071 deg RA of node: 226.8806 deg Eccentricity: 0.0011237 Arg of perigee: 311.7363 deg Mean anomaly: 048.2610 deg Mean motion: 15.70752458 rev/day Decay rate: 1.25054e-03 rev/day^2 Epoch rev: 875 Checksum: 291
Satellite: CO-77 Catalog number: 39578 Epoch time: 14114.79189633 Element set: 95 Inclination: 064.9998 deg RA of node: 225.0559 deg Eccentricity: 0.0016763 Arg of perigee: 314.2264 deg Mean anomaly: 045.7514 deg Mean motion: 15.85893831 rev/day Decay rate: 4.59287e-03 rev/day^2 Epoch rev: 879 Checksum: 378
Satellite: STARS-II Catalog number: 39579 Epoch time: 14114.58469534 Element set: 125 Inclination: 064.9916 deg RA of node: 224.5721 deg Eccentricity: 0.0015271 Arg of perigee: 302.1802 deg Mean anomaly: 057.9489 deg Mean motion: 16.16865562 rev/day Decay rate: 4.044628e-02 rev/day^2 Epoch rev: 878 Checksum: 331
Satellite: KICKSAT Catalog number: 39685 Epoch time: 14114.15832424 Element set: 15 Inclination: 051.6495 deg RA of node: 006.1183 deg Eccentricity: 0.0023037 Arg of perigee: 290.8313 deg Mean anomaly: 069.0117 deg Mean motion: 15.89803518 rev/day Decay rate: 4.55809e-03 rev/day^2 Epoch rev: 84 Checksum: 288
/EX
participants (1)
-
Ray Hoad